Regional Weather Roundup
Issued by NWS

Home | Current Version | Previous Version | Graphics & Text | Print | Product List | Glossary On
Versions: 1 2 3 4 5 6 7 8 9 10 11 12 13 14 15 16 17 18 19 20 21 22 23 24 25 26 27 28 29 30 31 32 33 34 35 36 37 38 39 40 41 42 43 44 45 46 47 48 49 50
653
ASUS43 KIND 251309
RWRIN

WEATHER ROUNDUP FOR INDIANA
NATIONAL WEATHER SERVICE INDIANAPOLIS IN
900 AM EDT THU MAY 25 2017

NOTE: "FAIR" INDICATES FEW OR NO CLOUDS BELOW 12,000 FEET WITH NO
SIGNIFICANT WEATHER AND/OR OBSTRUCTIONS TO VISIBILITY.

* - STATION DOES NOT REPORT WEATHER SUCH AS PRECIPITATION OR FOG.

+ - STATION NOT QUALITY CONTROLLED BY THE NATIONAL WEATHER SERVICE.
    USE DATA WITH CAUTION...ESPECIALLY DEWPOINT AND RELATIVE
    HUMIDITY OBSERVATIONS.

INZ001>003-010>013-019-020-251400-
NORTHWEST INDIANA

CITY           SKY/WX    TMP DP  RH WIND       PRES   REMARKS
GARY /AIRPORT/ CLOUDY    54  50  87 NW20      29.58R
KNOX *+        CLOUDY    52  52 100 NW14      29.52R
LA PORTE +     CLOUDY    52  52  98 NW10      29.54R FOG
MICHIGAN CITY+ CLOUDY    50  50 100 N7        29.55R
MONTICELLO +   CLOUDY    55  53  95 NW15      29.51R FOG
RENSSELAER +   CLOUDY    54  50  87 NW10      29.56R FOG
VALPARAISO     CLOUDY    53  51  93 N8        29.55R FOG

$$

LMZ046-743>745-251400-
SOUTHERN LAKE MICHIGAN

STATION/POSITION TIME  TEMP    WIND        PRES    WAVE
                       AIR SEA DIR/SP/G            HT
                 (UTC) (F)     (DEG/KT/KT) (MB)    (FT)
BURNS HARBOR     1240   50     340/ 17/ 22 1001.4R
MICHIGAN CITY    1240   49     330/ 21/ 24   N/A
5NW MICH CITY    1300   49 52  340/ 16/ 19   N/A     6

$$

INZ004-005-014>016-021>024-251400-
NORTH CENTRAL INDIANA

CITY           SKY/WX    TMP DP  RH WIND       PRES   REMARKS
ELKHART        CLOUDY    57  55  94 N5        29.49S
GOSHEN         CLOUDY    59  55  87 N14       29.48R
LOGANSPORT +   CLOUDY    54  54 100 NW9       29.50R FOG
PERU/GRISSOM   CLOUDY    59  59 100 NW13      29.46R
ROCHESTER +    CLOUDY   N/A N/A N/A N8        29.49R
SOUTH BEND     CLOUDY    57  55  93 N15       29.52R
WARSAW +       CLOUDY    57  55  94 N7        29.48R

$$

INZ006>009-017-018-025>027-251400-
NORTHEAST INDIANA

CITY           SKY/WX    TMP DP  RH WIND       PRES   REMARKS
ANGOLA *+      CLOUDY    57  45  62 N7        29.47R
AUBURN +       CLOUDY    59  55  88 N9        29.46R FOG
FORT WAYNE     DRIZZLE   60  58  92 N12       29.44R FOG
HUNTINGTON +   RAIN     N/A N/A N/A N8        29.45R
KENDALLVILLE + CLOUDY    58  58 100 N12       29.47R FOG

$$

INZ028-029-035-036-043>045-051>053-251400-
WEST CENTRAL INDIANA

CITY           SKY/WX    TMP DP  RH WIND       PRES   REMARKS
CRAWFORDSVL +  CLOUDY    53  53 100 NW18      29.53R FOG
GREENCASTLE +  CLOUDY    54  54 100 NW6       29.53R FOG
LAFAYETTE      CLOUDY    54  54 100 NW17G29   29.52R FOG
TERRE HAUTE    CLOUDY    57  53  86 NW15G23   29.55R

$$

INZ030>032-037>040-046>048-054>057-064-065-251400-
CENTRAL INDIANA

CITY           SKY/WX    TMP DP  RH WIND       PRES   REMARKS
ANDERSON       LGT RAIN N/A N/A N/A E12       29.45R
CP ATTERBURY + CLOUDY    55  54  94 NW13G21   29.48R
COLUMBUS       LGT RAIN  55  54  94 W16       29.46R FOG
FISHERS *+     CLOUDY    54  54 100 NW13G21   29.47
FRANKFORT +    CLOUDY    56  55  96 NW13      29.51R FOG
GREENWOOD *+   CLOUDY    56  55  95 NW10G18   29.47R
INDIANAPOLIS   DRIZZLE   55  54  96 NW16G25   29.48R FOG
-EAGLE CREEK   CLOUDY    56  54  93 NW17G24   29.47R FOG
KOKOMO +       LGT RAIN  59  57  93 NW15      29.47R
MARION +       RAIN      59  57  94 N9        29.45R
MT COMFORT *+  CLOUDY    55  55 100 NW16      29.45R
SHELBYVILLE    CLOUDY    58  54  86 NW16      29.43R FOG
ZIONSVILLE +   FOG       54  53  98 NW13G22   29.49R VSB 3/4

$$

INZ033-034-041-042-049-050-058-059-251400-
EAST CENTRAL INDIANA

CITY           SKY/WX    TMP DP  RH WIND       PRES   REMARKS
MUNCIE         CLOUDY    62  59  90 N7        29.42R
RICHMOND +     CLOUDY    57  55  94 NW6       29.41S

$$

INZ060-061-067>069-081>083-085>088-251400-
SOUTHWEST INDIANA

CITY           SKY/WX    TMP DP  RH WIND       PRES   REMARKS
EVANSVILLE     CLOUDY    59  54  83 W9        29.61R
HUNTINGBURG *+ CLOUDY    59  56  89 W14G21    29.57R
WASHINGTON +   CLOUDY    58  54  87 W13G21    29.56R

$$

INZ062-063-066-070>080-084-089>092-251400-
SOUTH CENTRAL AND SOUTHEAST INDIANA

CITY           SKY/WX    TMP DP  RH WIND       PRES   REMARKS
BEDFORD +      DRIZZLE   57  54  88 W7G17     29.51
BLOOMINGTON    LGT RAIN  56  53  90 NW12G18   29.51R FOG
MADISON *+     CLOUDY    55  54  94 W12G20    29.48R
NORTH VERNON + RAIN      55  54  94 W12G17    29.46R

$$





USA.gov is the U.S. government's official web portal to all federal, state and local government web resources and services.